Date,TemperatureHighF,TemperatureAvgF,TemperatureLowF,DewpointHighF,DewpointAvgF,DewpointLowF,HumidityHigh,HumidityAvg,HumidityLow,PressureMaxIn,PressureMinIn,WindSpeedMaxMPH,WindSpeedAvgMPH,GustSpeedMaxMPH,PrecipitationSumIn
2013-4-1,81.4,72.3,63.2,61.0,-2.8,-99.9,62,31,27,30.06,29.94,2,0,4,0.00
2013-4-2,80.5,68.2,56.0,58.6,46.6,21.6,60,47,26,30.16,30.06,3,1,3,0.00
2013-4-3,66.4,61.8,56.7,45.6,-42.9,-99.9,51,12,6,30.09,29.83,6,2,6,0.71
2013-4-4,76.3,66.9,61.7,45.1,-63.5,-99.9,33,6,3,29.97,29.88,4,1,4,0.00
2013-4-5,65.9,59.9,54.4,49.8,-11.1,-99.9,58,30,13,30.12,29.90,5,2,6,0.00
2013-4-6,75.1,62.9,48.7,56.5,18.5,-99.9,58,35,5,30.22,30.11,2,0,2,0.00
2013-4-7,76.1,65.6,54.8,52.6,-29.7,-99.9,44,14,1,30.20,30.08,3,1,9,0.00
2013-4-8,78.6,70.4,64.7,49.2,-54.1,-99.9,37,9,4,30.15,30.04,3,1,5,0.00
2013-4-9,79.2,71.8,66.8,55.4,-43.9,-99.9,45,13,3,30.17,30.03,4,2,7,0.00
2013-4-10,79.4,71.9,66.9,45.3,-55.8,-99.9,30,7,4,30.11,29.96,4,1,6,0.00
2013-4-11,82.6,73.7,69.5,33.4,-85.1,-99.9,17,1,1,29.95,29.68,2,0,4,0.75
2013-4-12,78.7,53.8,59.3,55.6,-45.9,-99.9,61,18,24,30.00,29.76,4,1,6,0.00
2013-4-13,79.7,63.0,55.3,57.5,22.6,-99.9,62,47,39,30.08,29.93,3,1,3,0.00
2013-4-14,69.5,66.2,61.1,54.4,-38.9,-99.9,59,21,8,29.98,29.77,5,1,7,1.71
2013-4-15,76.1,55.6,62.5,-99.9,-99.9,-99.9,0,0,100,30.09,29.88,3,0,3,0.00
2013-4-16,71.5,24.9,66.9,-99.9,-99.9,-99.9,0,0,100,30.17,30.07,4,1,6,0.00
2013-4-17,71.3,10.3,70.3,-99.9,-99.9,-99.9,0,0,100,30.18,30.07,3,1,5,0.00
2013-4-18,70.3,4.4,69.5,-99.9,-99.9,-99.9,0,0,100,30.06,29.93,5,2,6,0.00
2013-4-19,64.9,29.4,52.6,26.9,-94.8,-99.9,26,1,20,30.17,29.88,5,1,5,0.54
2013-4-20,62.3,29.8,46.9,44.2,-66.9,-99.9,61,10,2,30.26,30.14,7,3,11,0.00
2013-4-21,64.9,22.8,50.8,43.6,-51.4,-99.9,62,19,38,30.23,30.14,3,2,7,0.00
2013-4-22,68.8,24.6,63.5,44.3,-79.6,-99.9,59,11,28,30.18,30.10,2,1,3,0.00
2013-4-23,71.5,38.1,65.5,38.5,-77.6,-99.9,37,4,1,30.18,30.09,3,1,8,0.00
2013-4-24,73.1,35.2,63.9,-99.9,-99.9,-99.9,0,0,100,30.18,30.08,3,0,3,0.00
2013-4-25,70.7,34.7,63.4,46.1,-93.8,-99.9,46,2,45,30.29,30.15,3,1,3,0.00
2013-4-26,75.6,38.7,58.2,58.4,-19.4,-99.9,63,28,40,30.33,30.24,4,1,4,0.00
2013-4-27,77.8,57.1,62.5,53.2,-42.4,-99.9,48,14,1,30.26,30.11,3,0,5,0.00
2013-4-28,80.6,65.0,70.1,46.5,-74.3,-99.9,36,5,8,30.12,29.99,2,0,2,0.00
2013-4-29,80.7,58.8,69.8,48.2,-69.4,-99.9,36,4,3,30.02,29.94,1,0,5,0.00
2013-4-30,80.1,62.9,68.7,18.4,-90.5,-99.9,12,1,1,30.02,29.94,3,1,4,0.00